Location: Lincolnton
(35.4660°N, 81.2500°W)
Time: 09:31:03
(UTC-04:00)

Hubble Space Telescope - Visible Passes

Search period start: 16 August 2017 00:00
Search period end: 26 August 2017 00:00
Orbit: 538 x 542 km, 28.5° (Epoch: 15 August)

Date Brightness Start Highest point End Pass type
(mag) Time Alt. Az. Time Alt. Az. Time Alt. Az.
16 Aug 2.5 05:41:36 14° SSW 05:43:50 20° SSE 05:46:54 10° ESE visible
17 Aug 2.3 05:32:02 18° SSW 05:33:39 23° SSE 05:36:56 10° ESE visible
18 Aug 2.1 05:22:29 23° SSW 05:23:28 25° S 05:26:54 10° ESE visible
19 Aug 1.9 05:12:56 27° S 05:13:18 28° S 05:16:50 10° ESE visible
20 Aug 1.9 05:03:25 29° SSE 05:03:25 29° SSE 05:06:44 10° ESE visible
21 Aug 2.1 04:53:56 27° SSE 04:53:56 27° SSE 04:56:36 10° ESE visible
22 Aug 2.5 04:44:31 22° SE 04:44:31 22° SE 04:46:28 10° ESE visible
22 Aug 2.2 06:20:18 10° WSW 06:23:34 22° SSW 06:26:49 10° SE visible
23 Aug 3.0 04:35:10 16° SE 04:35:10 16° SE 04:36:17 10° ESE visible
23 Aug 2.4 06:10:34 11° WSW 06:13:22 20° SSW 06:16:24 10° SSE visible
24 Aug 3.5 04:25:56 11° SE 04:25:56 11° SE 04:26:04 10° SE visible
24 Aug 2.5 06:01:19 13° SW 06:03:10 17° SSW 06:05:53 10° SSE visible
25 Aug 2.6 05:52:12 14° SSW 05:52:57 14° SSW 05:55:13 10° SSE visible
